This is the latest recevied weather packets stored in our database for station/object LU1MQF-10. If no packets are shown the sender has not sent any weather packets the latest 1 day(s).
| Time | Temp. | Humidity | Pressure | Rain* | Wind** | Luminosity | Snow |
|---|---|---|---|---|---|---|---|
| 1778094917 | 20° C | 25% | 1011.1 hPa | - | - | - | - |
| 1778094017 | 20° C | 26% | 1011.3 hPa | - | - | - | - |
| 1778093117 | 20.56° C | 25% | 1011 hPa | - | - | - | - |
| 1778093110 | 20.56° C | 25% | 1011 hPa | - | - | - | - |
| 1778092217 | 20.56° C | 26% | 1010.6 hPa | - | - | - | - |
| 1778092209 | 20.56° C | 26% | 1010.6 hPa | - | - | - | - |
| 1778091309 | 20.56° C | 29% | 1009.8 hPa | - | - | - | - |
| 1778086808 | 20.56° C | 40% | 1010 hPa | - | - | - | - |
| 1778085912 | 20.56° C | 40% | 1009.9 hPa | - | - | - | - |
| 1778085908 | 20.56° C | 40% | 1009.9 hPa | - | - | - | - |
| 1778081411 | 18.89° C | 44% | 1011.2 hPa | - | - | - | - |
| 1778080507 | 18.89° C | 44% | 1011.8 hPa | - | - | - | - |
| 1778073299 | 16.67° C | 45% | 1013 hPa | - | - | - | - |
| 1778072399 | 16.67° C | 46% | 1013 hPa | - | - | - | - |
| 1778067902 | 16.67° C | 43% | 1013.3 hPa | - | - | - | - |
| 1778066998 | 16.67° C | 42% | 1013.2 hPa | - | - | - | - |
| 1778062501 | 17.22° C | 41% | 1013.2 hPa | - | - | - | - |
| 1778062497 | 17.22° C | 41% | 1013.2 hPa | - | - | - | - |
| 1778061602 | 17.22° C | 42% | 1013.3 hPa | - | - | - | - |
| 1778061597 | 17.22° C | 42% | 1013.3 hPa | - | - | - | - |
| 1778060701 | 17.22° C | 42% | 1013.3 hPa | - | - | - | - |
| 1778060697 | 17.22° C | 42% | 1013.3 hPa | - | - | - | - |
| 1778058896 | 17.22° C | 41% | 1013.3 hPa | - | - | - | - |
| 1778057100 | 17.22° C | 42% | 1013.6 hPa | - | - | - | - |
| 1778057096 | 17.22° C | 42% | 1013.6 hPa | - | - | - | - |
* Rain since midnight (hover to see other rain measurements)
** Current wind speed in m/s (hover to see current wind gust speed)